[[{"header":{"parameterUnit":"m.s-1","parameterCategory":1,"la1":30.2991,"la2":30.254,"lo1":-89.0895,"lo2":-89.0444,"dy":0.0017,"dx":0.0017,"nx":28,"ny":28,"refTime":"2023-10-25T09:00:00:Z","depth":0,"parameterNumber":2,"parameterNumberName":"U-component_of_WINDS"},"data":[0,0,0,0,0,0,0,0,0,0,0,0,0,0,0,0,0,0,0,0,0,0,0,0,0,0,0,0,0,0,0,0,0,0,0,0,0,0,0,0,0,0,0,0,0,0,0,0,0,0,0,0,0,0,0,0,0,0,-5.8684,-5.8684,0,-5.8713,-5.8714,-5.8714,-5.8557,-5.8552,-5.8547,-5.8543,-5.8573,-5.8578,-5.8583,0,0,0,0,0,0,0,0,0,0,0,0,0,-5.8492,-5.8496,-5.8684,-5.8684,-5.8685,-5.8713,-5.8714,-5.8714,-5.8557,-5.8552,-5.8546,-5.8541,-5.8571,-5.8577,-5.8583,0,0,0,0,0,0,0,0,0,0,0,0,0,-5.8554,-5.8497,-5.8684,-5.861,-5.8604,-5.8713,-5.8714,-5.8714,-5.8558,-5.8552,-5.8545,-5.8539,-5.8569,-5.8576,-5.8584,-5.8766,0,0,-5.8607,-5.861,0,0,0,0,0,0,0,0,-5.855,-5.8561,-5.8621,-5.8615,-5.8608,-5.8624,-5.8656,-5.8731,-5.856,-5.8576,-5.8543,-5.8535,-5.8595,-5.86,-5.8621,-5.8767,-5.8768,-5.8607,-5.8612,-5.8615,-5.8617,0,0,0,0,0,0,0,-5.8546,-5.8559,-5.8695,-5.8622,-5.8614,-5.8575,-5.8576,-5.867,-5.8623,-5.8574,-5.8562,-5.8568,-5.8591,-5.8614,-5.862,-5.8769,-5.8607,-5.8614,-5.8618,-5.8621,-5.9065,-5.9072,0,0,0,0,0,0,-5.8552,-5.8556,-5.8694,-5.8696,-5.8562,-5.8584,-5.8585,-5.8626,-5.8622,-5.8614,-5.8574,-5.8561,-5.8604,-5.8612,-5.8621,-5.8832,-5.8615,-5.8622,-5.8626,-5.9058,-5.9067,-5.9074,0,0,0,0,0,0,-5.8548,-5.8566,-5.8693,-5.8623,-5.8636,-5.8595,-5.8641,-5.863,-5.8653,-5.8622,-5.8612,-5.8606,-5.8599,-5.861,-5.8731,-5.8831,-5.8625,-5.8632,-5.9049,-5.906,-5.907,-5.9258,0,0,0,0,0,0,-5.8543,-5.8565,-5.8634,-5.8626,-5.8641,-5.8804,-5.8648,-5.8636,-5.8666,-5.8649,-5.8649,-5.8643,-5.8595,-5.872,-5.8738,-5.8838,-5.8638,-5.904,-5.9054,-5.9067,-5.9243,-5.9274,-5.9301,0,0,0,0,0,-5.8537,-5.8686,-5.8639,-5.8656,-5.8726,-5.881,-5.8818,-5.876,-5.8675,-5.8744,-5.8724,-5.8643,-5.8818,-5.8734,-5.8753,-5.8856,-5.9033,-5.905,-5.9066,-5.923,-5.9268,-5.9301,0,0,0,0,0,0,-5.8707,-5.8683,-5.8631,-5.8781,-5.8799,-5.8783,-5.8868,-5.8802,-5.8844,-5.8827,-5.8752,-5.8754,-5.8887,-5.8883,-5.8791,-5.9032,-5.8911,-5.8932,-5.9029,-5.9065,-5.9094,-5.9091,-5.8644,0,0,0,0,0,-5.8762,-5.8832,-5.8808,-5.8943,-5.8955,-5.8911,-5.8945,-5.8898,-5.8913,-5.892,-5.8908,-5.8926,-5.8984,-5.9024,-5.9077,-5.9242,-5.9239,-5.9322,-5.9352,-5.9376,-5.9395,-5.9481,-5.9518,-5.9128,-5.9128,-5.9128,0,0,-5.8876,-5.8872,-5.8921,-5.8977,-5.8985,-5.9059,-5.8917,-5.9002,-5.9056,-5.8932,-5.9045,-5.9038,-5.9052,-5.9196,-5.9259,-5.9198,-5.9502,-5.9397,-5.9416,-5.9422,-5.9502,-5.9539,-5.9572,-5.9139,-5.9137,-5.9136,0,0,-5.9122,-5.9126,-5.9239,-5.925,-5.9264,-5.9234,-5.9262,-5.9256,-5.9246,-5.9359,-5.9267,-5.9331,-5.9433,-5.9447,-5.9468,-5.972,-5.9647,-5.9739,-5.9891,-5.9977,-6.0007,-6.0034,-6.0123,-6.0156,-5.9758,-5.9759,-5.9759,0,-5.9262,-5.937,-5.9305,-5.9396,-5.9423,-5.9315,-5.9429,-5.9443,-5.9474,-5.9495,-5.9426,-5.9552,-5.9554,-5.97,-5.9761,-5.9782,-5.981,-5.9738,-6.0008,-6.0034,-6.0058,-6.0143,-6.0177,-5.977,-5.9768,-5.9767,-5.9766,0,-5.9541,-5.9618,-5.9707,-5.974,-5.9777,-5.9879,-5.983,-5.9875,-5.9826,-5.9803,-5.9919,-5.9918,-5.9968,-5.9999,-5.9952,-6.0138,-6.0099,-6.0021,-5.9897,-6.0108,-6.0186,-6.0217,-5.9785,-5.9781,-5.9778,-5.9775,0,0,-5.9894,-5.989,-5.9924,-5.9937,-5.9945,-6.0003,-6.01,-6.0149,-6.0189,-6.0214,-6.0293,-6.0383,-6.031,-6.0334,-6.0287,-6.0363,-6.0562,-6.0274,-6.0273,-6.0327,-6.0766,-6.0825,-6.0863,-6.0514,-6.052,-6.0524,-6.0765,0,-6.0134,-6.0299,-6.0244,-6.0412,-6.0481,-6.038,-6.0464,-6.0478,-6.046,-6.0516,-6.0494,-6.0559,-6.0459,-6.0472,-6.0542,-6.0523,-6.0649,-6.0505,-6.0586,-6.059,-6.0585,-6.0904,-6.0966,-6.1193,-6.0795,-6.08,-6.0804,0,-6.0435,-6.0473,-6.0648,-6.0644,-6.0671,-6.0748,-6.0788,-6.0843,-6.0857,-6.0838,-6.0865,-6.0803,-6.0897,-6.0775,-6.0904,-6.0807,-6.0837,-6.0833,-6.084,-6.0845,-6.0709,-6.0917,-6.1264,-6.1298,-6.0851,-6.0847,-6.0844,0,-6.0674,-6.0768,-6.0885,-6.09,-6.0898,-6.0954,-6.0956,-6.0963,-6.0996,-6.1032,-6.1053,-6.1099,-6.1125,-6.1162,-6.1113,-6.1029,-6.125,-6.1123,-6.1236,-6.1238,-6.1286,-6.1284,-6.1643,-6.1308,-6.1307,-6.1307,-6.1306,0,-6.0947,-6.1058,-6.0992,-6.1064,-6.1185,-6.1121,-6.1242,-6.1233,-6.124,-6.1308,-6.1223,-6.1289,-6.1221,-6.1281,-6.1244,-6.1356,-6.1368,-6.1355,-6.1344,-6.1362,-6.1364,-6.138,-6.1363,-6.1316,-6.1314,-6.1312,-6.131,0,-6.1234,-6.1195,-6.1315,-6.1304,-6.1303,-6.1393,-6.1383,-6.1449,-6.1425,-6.1512,-6.1528,-6.149,-6.1556,-6.1511,-6.1577,-6.1552,-6.1699,-6.1666,-6.1694,-6.1685,-6.18,-6.179,-6.2181,-6.2229,-6.1865,-6.1869,-6.1872,0,-6.141,-6.1493,-6.1491,-6.1531,-6.1538,-6.1603,-6.1636,-6.1577,-6.1615,-6.1637,-6.17,-6.1758,-6.1802,-6.1911,-6.1889,-6.1939,-6.1906,-6.204,-6.1913,-6.1929,-6.1907,-6.1902,-6.191,-6.2065,-6.207,-6.2073,-6.2076,0,-6.1727,-6.1704,-6.1755,-6.1801,-6.1843,-6.1875,-6.1901,-6.1938,-6.1878,-6.1925,-6.1991,-6.2025,-6.2092,-6.2151,-6.2192,-6.2193,-6.2125,-6.2116,-6.2145,-6.2164,-6.2177,-6.217,-6.1763,-6.2107,-6.2104,-6.2102,-6.21,-6.2099,-6.1963,-6.2032,-6.2042,-6.2102,-6.2115,-6.2141,-6.2202,-6.2186,-6.2239,-6.2289,-6.2251,-6.233,-6.2341,-6.239,-6.24,-6.246,-6.2405,-6.2447,-6.2457,-6.2468,-6.2484,-6.2168,-6.2468,-6.2467,-6.2466,-6.2465,-6.2464,0,-6.2275,-6.2276,-6.2332,-6.2371,-6.2419,-6.235,-6.2375,-6.2419,-6.249,-6.2506,-6.2551,-6.2627,-6.2684,-6.2667,-6.2717,-6.2769,-6.2739,-6.2784,-6.2779,-6.278,-6.2531,-6.25,-6.2808,-6.2808,-6.2807,-6.2807,-6.2807,-6.2807,-6.2443,-6.2555,-6.2533,-6.2651,-6.2651,-6.2728,-6.2748,-6.2771,-6.2784,-6.2873,-6.2919,-6.2908,-6.2911,-6.2961,-6.3011,-6.3004,-6.3026,-6.3083,-6.3065,-6.2832,-6.2798,-6.2766,-6.2737,-6.3089,-6.3089,-6.3309,-6.3312,-6.3313]},{"header":{"parameterUnit":"m.s-1","parameterCategory":1,"la1":30.2991,"la2":30.254,"lo1":-89.0895,"lo2":-89.0444,"dy":0.0017,"dx":0.0017,"nx":28,"ny":28,"refTime":"2023-10-25T09:00:00:Z","depth":0,"parameterNumber":3,"parameterNumberName":"V-component_of_WINDS"},"data":[0,0,0,0,0,0,0,0,0,0,0,0,0,0,0,0,0,0,0,0,0,0,0,0,0,0,0,0,0,0,0,0,0,0,0,0,0,0,0,0,0,0,0,0,0,0,0,0,0,0,0,0,0,0,0,0,0,0,-1.4273,-1.4273,0,-1.4267,-1.4267,-1.4267,-1.4275,-1.4276,-1.4276,-1.4276,-1.4269,-1.4268,-1.4268,0,0,0,0,0,0,0,0,0,0,0,0,0,-1.429,-1.4289,-1.4273,-1.4273,-1.4273,-1.4267,-1.4267,-1.4267,-1.4275,-1.4276,-1.4276,-1.4276,-1.4269,-1.4268,-1.4268,0,0,0,0,0,0,0,0,0,0,0,0,0,-1.4283,-1.4289,-1.4273,-1.4277,-1.4277,-1.4267,-1.4267,-1.4267,-1.4275,-1.4276,-1.4276,-1.4276,-1.4269,-1.4268,-1.4268,-1.4254,0,0,-1.4266,-1.4265,0,0,0,0,0,0,0,0,-1.4283,-1.4282,-1.4276,-1.4276,-1.4277,-1.4272,-1.427,-1.4263,-1.4275,-1.4276,-1.4276,-1.4277,-1.427,-1.4269,-1.4267,-1.4254,-1.4253,-1.4265,-1.4265,-1.4265,-1.4264,0,0,0,0,0,0,0,-1.4284,-1.4283,-1.4271,-1.4276,-1.4276,-1.4277,-1.4277,-1.4269,-1.427,-1.4276,-1.4276,-1.4275,-1.427,-1.4267,-1.4267,-1.4253,-1.4265,-1.4265,-1.4264,-1.4264,-1.4226,-1.4225,0,0,0,0,0,0,-1.4284,-1.4283,-1.4271,-1.4271,-1.4281,-1.4277,-1.4276,-1.4273,-1.427,-1.427,-1.4275,-1.4276,-1.4268,-1.4267,-1.4266,-1.4248,-1.4265,-1.4264,-1.4264,-1.4226,-1.4226,-1.4225,0,0,0,0,0,0,-1.4284,-1.4283,-1.4271,-1.4277,-1.4275,-1.4276,-1.4273,-1.4273,-1.427,-1.427,-1.427,-1.4272,-1.4269,-1.4267,-1.4256,-1.4248,-1.4264,-1.4263,-1.4227,-1.4226,-1.4225,-1.4212,0,0,0,0,0,0,-1.4285,-1.4283,-1.4279,-1.4277,-1.4275,-1.4262,-1.4272,-1.4272,-1.4269,-1.427,-1.4267,-1.4267,-1.4269,-1.4257,-1.4256,-1.4247,-1.4262,-1.4228,-1.4227,-1.4226,-1.4214,-1.4211,-1.4209,0,0,0,0,0,-1.4285,-1.4276,-1.4278,-1.4277,-1.427,-1.4262,-1.4261,-1.4263,-1.4269,-1.4263,-1.4263,-1.4267,-1.4249,-1.4256,-1.4254,-1.4245,-1.4228,-1.4227,-1.4226,-1.4215,-1.4212,-1.4209,0,0,0,0,0,0,-1.4277,-1.4276,-1.4279,-1.4268,-1.4265,-1.4263,-1.4257,-1.426,-1.4255,-1.4257,-1.4259,-1.4258,-1.4246,-1.4245,-1.4253,-1.4231,-1.424,-1.4238,-1.4232,-1.4229,-1.4227,-1.4227,-1.4262,0,0,0,0,0,-1.4274,-1.4268,-1.4267,-1.4258,-1.4256,-1.4257,-1.4254,-1.4255,-1.4252,-1.4251,-1.4249,-1.4245,-1.4238,-1.4234,-1.4228,-1.4214,-1.4212,-1.4206,-1.4204,-1.4202,-1.42,-1.419,-1.4187,-1.4221,-1.4221,-1.4221,0,0,-1.4268,-1.4266,-1.4263,-1.4256,-1.4254,-1.4247,-1.4256,-1.4248,-1.4242,-1.425,-1.4239,-1.4237,-1.4233,-1.4219,-1.4214,-1.4218,-1.419,-1.4201,-1.4199,-1.4198,-1.4188,-1.4185,-1.4182,-1.422,-1.422,-1.422,0,0,-1.4252,-1.4251,-1.4242,-1.4239,-1.4235,-1.4236,-1.4233,-1.4231,-1.423,-1.4219,-1.4223,-1.4216,-1.4205,-1.42,-1.4197,-1.4177,-1.418,-1.4175,-1.4163,-1.4152,-1.415,-1.4147,-1.4138,-1.4134,-1.4173,-1.4173,-1.4173,0,-1.4244,-1.4234,-1.4237,-1.4229,-1.4225,-1.423,-1.422,-1.4217,-1.4211,-1.4208,-1.4213,-1.4197,-1.4195,-1.4179,-1.4174,-1.4172,-1.4168,-1.4175,-1.415,-1.4148,-1.4145,-1.4136,-1.4133,-1.4172,-1.4172,-1.4172,-1.4173,0,-1.4224,-1.4217,-1.421,-1.4203,-1.4199,-1.419,-1.419,-1.4184,-1.4186,-1.4185,-1.4172,-1.4169,-1.4161,-1.4158,-1.416,-1.4142,-1.4144,-1.415,-1.4159,-1.4141,-1.4132,-1.4129,-1.4171,-1.4171,-1.4172,-1.4172,0,0,-1.4204,-1.4198,-1.4195,-1.4191,-1.4186,-1.418,-1.417,-1.4162,-1.4156,-1.4151,-1.4141,-1.4131,-1.4135,-1.4131,-1.4132,-1.4123,-1.4104,-1.4129,-1.4129,-1.4123,-1.408,-1.4075,-1.4071,-1.4106,-1.4106,-1.4105,-1.408,0,-1.4187,-1.417,-1.4171,-1.4154,-1.4146,-1.415,-1.414,-1.4136,-1.4134,-1.4126,-1.4124,-1.4115,-1.4123,-1.4119,-1.4111,-1.4108,-1.4095,-1.411,-1.4095,-1.4095,-1.4094,-1.4067,-1.4062,-1.4038,-1.4077,-1.4076,-1.4076,0,-1.4165,-1.4158,-1.414,-1.4134,-1.4131,-1.4122,-1.4113,-1.4106,-1.41,-1.4099,-1.4093,-1.4095,-1.4083,-1.4093,-1.4075,-1.4085,-1.4078,-1.4076,-1.4075,-1.4072,-1.4083,-1.4061,-1.403,-1.4026,-1.4071,-1.4071,-1.4072,0,-1.4149,-1.4136,-1.4123,-1.412,-1.4112,-1.4106,-1.4103,-1.4097,-1.4091,-1.4083,-1.4078,-1.4069,-1.4064,-1.4056,-1.4054,-1.4062,-1.4035,-1.4046,-1.4032,-1.4032,-1.4026,-1.4026,-1.3991,-1.4025,-1.4025,-1.4025,-1.4025,0,-1.4129,-1.4117,-1.4115,-1.4107,-1.4093,-1.4094,-1.408,-1.4077,-1.4071,-1.4061,-1.4064,-1.4055,-1.4054,-1.4044,-1.4043,-1.4026,-1.4024,-1.4022,-1.4021,-1.402,-1.402,-1.4015,-1.4016,-1.4024,-1.4024,-1.4025,-1.4025,0,-1.4109,-1.4108,-1.4093,-1.4087,-1.4085,-1.4075,-1.4069,-1.406,-1.4058,-1.4045,-1.4042,-1.4038,-1.4025,-1.4023,-1.4009,-1.4008,-1.3987,-1.399,-1.3989,-1.3989,-1.3975,-1.3975,-1.3934,-1.3927,-1.3968,-1.3967,-1.3967,0,-1.4096,-1.4087,-1.4079,-1.4072,-1.4068,-1.4058,-1.4051,-1.4051,-1.4043,-1.4033,-1.4025,-1.4013,-1.4003,-1.3982,-1.3978,-1.3966,-1.3966,-1.3953,-1.3965,-1.3963,-1.3963,-1.3963,-1.396,-1.395,-1.395,-1.3949,-1.3949,0,-1.4071,-1.407,-1.4061,-1.405,-1.4042,-1.4034,-1.4026,-1.402,-1.4018,-1.401,-1.3997,-1.3989,-1.3973,-1.396,-1.3947,-1.3942,-1.3944,-1.3945,-1.3941,-1.3939,-1.3938,-1.3936,-1.3981,-1.3946,-1.3946,-1.3947,-1.3947,-1.3947,-1.4053,-1.4044,-1.4036,-1.4024,-1.4018,-1.401,-1.4,-1.3996,-1.3985,-1.3972,-1.3972,-1.3957,-1.3948,-1.3931,-1.3925,-1.3912,-1.3916,-1.3911,-1.3909,-1.3907,-1.3904,-1.3942,-1.391,-1.391,-1.391,-1.391,-1.3911,0,-1.4027,-1.4021,-1.4011,-1.3999,-1.3989,-1.3992,-1.3982,-1.3973,-1.396,-1.3951,-1.3941,-1.3924,-1.391,-1.3904,-1.389,-1.388,-1.388,-1.3876,-1.3876,-1.3874,-1.3903,-1.3907,-1.3876,-1.3876,-1.3876,-1.3876,-1.3876,-1.3876,-1.4012,-1.3996,-1.3993,-1.3973,-1.3967,-1.3952,-1.3946,-1.3937,-1.393,-1.3911,-1.3899,-1.3895,-1.3886,-1.3871,-1.3857,-1.3856,-1.3849,-1.3844,-1.3842,-1.3869,-1.3873,-1.3876,-1.3879,-1.3843,-1.3843,-1.3814,-1.3814,-1.3813]}]]